TimeMST,TemperatureF,Dew PointF,Humidity,Sea Level PressureIn,VisibilityMPH,Wind Direction,Wind SpeedMPH,Gust SpeedMPH,PrecipitationIn,Events,Conditions,WindDirDegrees,DateUTC
12:53 AM,28.0,14.0,56,30.32,10.0,West,3.5,-,N/A,,Clear,260,2012-12-04 07:53:00
1:53 AM,25.0,12.0,58,30.34,10.0,Calm,Calm,-,N/A,,Clear,0,2012-12-04 08:53:00
2:53 AM,24.1,10.9,57,30.35,10.0,Calm,Calm,-,N/A,,Clear,0,2012-12-04 09:53:00
3:53 AM,23.0,10.9,60,30.36,10.0,West,4.6,-,N/A,,Clear,270,2012-12-04 10:53:00
4:53 AM,26.6,12.2,55,30.33,10.0,Calm,Calm,-,N/A,,Clear,0,2012-12-04 11:53:00
5:53 AM,30.9,16.0,54,30.41,10.0,Calm,Calm,-,N/A,,Clear,0,2012-12-04 12:53:00
6:53 AM,32.0,16.0,52,30.44,10.0,Calm,Calm,-,N/A,,Mostly Cloudy,0,2012-12-04 13:53:00
7:53 AM,32.0,17.1,54,30.46,10.0,ESE,4.6,-,N/A,,Clear,120,2012-12-04 14:53:00
8:53 AM,36.0,18.0,48,30.45,10.0,SSE,5.8,-,N/A,,Clear,150,2012-12-04 15:53:00
9:53 AM,39.9,18.0,41,30.47,10.0,Calm,Calm,-,N/A,,Clear,0,2012-12-04 16:53:00
10:53 AM,44.6,19.4,37,30.42,10.0,SE,9.2,-,N/A,,Clear,140,2012-12-04 17:53:00
11:53 AM,46.0,18.0,33,30.43,10.0,Variable,4.6,-,N/A,,Clear,0,2012-12-04 18:53:00
12:53 PM,48.9,17.1,28,30.41,10.0,NNE,3.5,-,N/A,,Overcast,20,2012-12-04 19:53:00
1:53 PM,51.1,17.1,26,30.39,10.0,Calm,Calm,-,N/A,,Partly Cloudy,0,2012-12-04 20:53:00
2:53 PM,51.1,15.1,24,30.38,10.0,Calm,Calm,-,N/A,,Clear,0,2012-12-04 21:53:00
3:53 PM,51.1,16.0,25,30.38,10.0,Calm,Calm,-,N/A,,Clear,0,2012-12-04 22:53:00
4:53 PM,46.0,14.0,28,30.39,10.0,WNW,3.5,-,N/A,,Clear,300,2012-12-04 23:53:00
5:53 PM,43.0,14.0,31,30.39,10.0,NW,8.1,-,N/A,,Clear,310,2012-12-05 00:53:00
6:53 PM,39.9,14.0,35,30.40,10.0,NW,9.2,-,N/A,,Clear,320,2012-12-05 01:53:00
7:53 PM,37.9,14.0,38,30.41,10.0,ESE,3.5,-,N/A,,Mostly Cloudy,110,2012-12-05 02:53:00
8:53 PM,36.0,14.0,41,30.40,10.0,Calm,Calm,-,N/A,,Clear,0,2012-12-05 03:53:00
9:53 PM,35.1,12.9,40,30.36,10.0,WSW,4.6,-,N/A,,Clear,250,2012-12-05 04:53:00
10:53 PM,30.0,10.0,43,30.36,10.0,Calm,Calm,-,N/A,,Clear,0,2012-12-05 05:53:00
11:53 PM,34.0,14.0,44,30.35,10.0,Calm,Calm,-,N/A,,Clear,0,2012-12-05 06:53:00